Weather History for KVUO - November, 2012

Change the Weather History Date:

Thursday, November 29, 2012

  Actual Average Record
Temperature  
Mean Temperature 44 °F 43 °F  
Max Temperature 46 °F 49 °F 61 °F (1909)
Min Temperature 41 °F 37 °F 7 °F (1896)
Degree Days  
Heating Degree Days 21    
Month to date heating degree days 491  
Since 1 July heating degree days 810  
Cooling Degree Days 0    
Month to date cooling degree days 0  
Year to date cooling degree days 398  
Moisture  
Dew Point 38 °F    
Average Humidity 80    
Maximum Humidity 89    
Minimum Humidity 70    
Precipitation  
Precipitation 0.32 in 0.24 in 1.44 in (1919)
Month to date precipitation 6.51 5.67  
Year to date precipitation 37.67 32.13  
Snow  
Snow 0.00 in - - ()
Month to date snowfall 0.0  
Snow Depth 0.00 in    
Sea Level Pressure  
Sea Level Pressure 29.61 in    
Wind  
Wind Speed 8 mph (SE)    
Max Wind Speed 17 mph    
Max Gust Speed 22 mph    
Visibility 10 miles    
Events Rain    
T = Trace of Precipitation, MM = Missing Value Source: NWS Daily Summary

Daily Weather History Graph

Daily Weather History Graph

Search for Another Location

Airport or City:

Trip Planner

Search our weather history database for the weather conditions in past years. The results will help you decide how hot, cold, wet, or windy it might be!

Date:

Astronomy

Nov. 29, 2012 Rise Set
Actual Time 7:29 AM PST 4:29 PM PST
Civil Twilight 6:55 AM PST 5:02 PM PST
Nautical Twilight 6:18 AM PST 5:39 PM PST
Astronomical Twilight 5:42 AM PST 6:15 PM PST
Moon 5:36 PM PST (11/29) 8:20 AM PST (11/29)
Length of Visible Light 10h 06m
Length of Day
8h 59m
Full, 99% of the Moon is Illuminated
Nov 29
Full
Dec 6
Last Quarter
Dec 13
New
Dec 19
First Quarter
Dec 28
Full

Hourly Weather History & Observations

Time (PST) Temp. Windchill Dew Point Humidity Pressure Visibility Wind Dir Wind Speed Gust Speed Precip Events Conditions
12:53 AM 43.0 °F 41.3 °F 35.1 °F 74% 29.70 in 10.0 mi South 3.5 mph - N/A   Clear
1:53 AM 42.1 °F - 35.1 °F 76% 29.68 in 10.0 mi Calm Calm - N/A   Partly Cloudy
2:53 AM 42.1 °F - 35.1 °F 76% 29.67 in 10.0 mi Calm Calm - N/A   Mostly Cloudy
3:53 AM 43.0 °F - 36.0 °F 76% 29.63 in 10.0 mi Calm Calm - 0.00 in   Mostly Cloudy
4:53 AM 44.1 °F 38.6 °F 36.0 °F 73% 29.60 in 10.0 mi ESE 10.4 mph - N/A   Overcast
5:53 AM 44.1 °F 38.1 °F 35.1 °F 71% 29.60 in 10.0 mi SE 11.5 mph - 0.00 in Rain Light Rain
6:53 AM 44.1 °F 41.5 °F 36.0 °F 73% 29.60 in 10.0 mi SSE 4.6 mph - 0.00 in   Overcast
8:53 AM 44.1 °F 38.6 °F 39.0 °F 82% 29.65 in 10.0 mi ESE 10.4 mph - 0.06 in Rain Light Rain
9:53 AM 45.0 °F 39.7 °F 41.0 °F 86% 29.67 in 10.0 mi ESE 10.4 mph - 0.00 in   Overcast
10:53 AM 44.1 °F 38.1 °F 39.9 °F 85% 29.67 in 10.0 mi ESE 11.5 mph - 0.01 in   Scattered Clouds
11:53 AM 45.0 °F 37.9 °F 39.0 °F 80% 29.67 in 10.0 mi ESE 16.1 mph 21.9 mph 0.00 in   Overcast
12:53 PM 46.0 °F 40.6 °F 39.0 °F 76% 29.63 in 10.0 mi ESE 11.5 mph - N/A   Overcast
1:53 PM 46.0 °F 40.2 °F 39.0 °F 76% 29.63 in 10.0 mi ESE 12.7 mph - N/A   Overcast
2:53 PM 46.0 °F 41.9 °F 39.0 °F 76% 29.61 in 10.0 mi ESE 8.1 mph - 0.00 in Rain Light Rain
3:53 PM 45.0 °F 40.6 °F 39.0 °F 80% 29.60 in 9.0 mi SE 8.1 mph - 0.04 in Rain Light Rain
4:53 PM 44.1 °F 38.1 °F 39.9 °F 85% 29.60 in 8.0 mi East 11.5 mph - 0.03 in Rain Light Rain
5:53 PM 43.0 °F 39.5 °F 39.9 °F 89% 29.58 in 9.0 mi ESE 5.8 mph - 0.03 in Rain Light Rain
6:53 PM 43.0 °F 41.3 °F 39.9 °F 89% 29.55 in 10.0 mi SE 3.5 mph - 0.00 in   Overcast
7:53 PM 43.0 °F 38.8 °F 39.0 °F 86% 29.54 in 10.0 mi SE 6.9 mph - 0.01 in Rain Light Rain
8:53 PM 44.1 °F 39.5 °F 39.9 °F 85% 29.53 in 5.0 mi ESE 8.1 mph - 0.06 in Rain Rain
9:53 PM 44.1 °F 39.5 °F 39.9 °F 85% 29.53 in 10.0 mi ESE 8.1 mph - 0.05 in Rain Light Rain
10:53 PM 44.1 °F 41.5 °F 39.9 °F 85% 29.50 in 10.0 mi SE 4.6 mph - 0.01 in   Overcast
11:53 PM 44.1 °F 39.5 °F 39.0 °F 82% 29.49 in 10.0 mi ESE 8.1 mph - 0.00 in   Overcast